TimeCDT,TemperatureF,Dew PointF,Humidity,Sea Level PressureIn,VisibilityMPH,Wind Direction,Wind SpeedMPH,Gust SpeedMPH,PrecipitationIn,Events,Conditions,WindDirDegrees,DateUTC
12:03 AM,42.8,39.2,87,29.98,0.5,Calm,Calm,-,N/A,Fog,Fog,0,2012-10-04 05:03:00
12:11 AM,44.6,42.8,93,29.98,0.2,Calm,Calm,-,N/A,Fog,Fog,0,2012-10-04 05:11:00
12:54 AM,44.1,43.0,96,29.99,0.2,Calm,Calm,-,N/A,Fog,Fog,0,2012-10-04 05:54:00
1:15 AM,44.6,42.8,93,29.97,1.0,Calm,Calm,-,N/A,,Mist,0,2012-10-04 06:15:00
1:20 AM,42.8,41.0,93,29.97,0.8,Calm,Calm,-,N/A,,Mist,0,2012-10-04 06:20:00
1:32 AM,42.8,41.0,93,29.97,0.2,Calm,Calm,-,N/A,Fog,Fog,0,2012-10-04 06:32:00
1:54 AM,42.1,41.0,96,29.98,0.5,Calm,Calm,-,N/A,Fog,Fog,0,2012-10-04 06:54:00
2:00 AM,42.8,42.8,100,29.96,0.2,Calm,Calm,-,N/A,Fog,Fog,0,2012-10-04 07:00:00
2:10 AM,42.8,42.8,100,29.96,0.2,Calm,Calm,-,N/A,Fog,Fog,0,2012-10-04 07:10:00
2:54 AM,43.0,42.1,97,29.96,0.2,Calm,Calm,-,N/A,Fog,Fog,0,2012-10-04 07:54:00
3:54 AM,41.0,41.0,100,29.95,0.2,Calm,Calm,-,N/A,Fog,Fog,0,2012-10-04 08:54:00
4:17 AM,41.0,41.0,100,29.93,0.5,Calm,Calm,-,N/A,Fog,Fog,0,2012-10-04 09:17:00
4:26 AM,39.2,39.2,100,29.93,0.2,Calm,Calm,-,N/A,Fog,Fog,0,2012-10-04 09:26:00
4:46 AM,39.2,39.2,100,29.92,0.2,Calm,Calm,-,N/A,Fog,Fog,0,2012-10-04 09:46:00
4:54 AM,39.0,37.9,96,29.94,0.5,Calm,Calm,-,N/A,Fog,Fog,0,2012-10-04 09:54:00
5:22 AM,39.2,37.4,93,29.92,0.2,Calm,Calm,-,N/A,Fog,Fog,0,2012-10-04 10:22:00
5:54 AM,39.9,39.0,97,29.94,0.2,Calm,Calm,-,N/A,Fog,Fog,0,2012-10-04 10:54:00
6:54 AM,39.0,39.0,100,29.94,0.2,Calm,Calm,-,N/A,Fog,Fog,0,2012-10-04 11:54:00
7:05 AM,39.2,39.2,100,29.91,0.2,Calm,Calm,-,N/A,Fog,Fog,0,2012-10-04 12:05:00
7:26 AM,39.2,39.2,100,29.90,0.8,Calm,Calm,-,N/A,,Overcast,0,2012-10-04 12:26:00
7:46 AM,41.0,39.2,93,29.90,0.2,Calm,Calm,-,N/A,Fog,Fog,0,2012-10-04 12:46:00
7:54 AM,41.0,41.0,100,29.93,0.2,Calm,Calm,-,N/A,Fog,Fog,0,2012-10-04 12:54:00
8:54 AM,46.9,46.0,97,29.91,0.2,SE,4.6,-,N/A,Fog,Fog,130,2012-10-04 13:54:00
9:54 AM,50.0,48.9,96,29.90,0.5,SSE,6.9,-,N/A,Fog,Fog,150,2012-10-04 14:54:00
10:09 AM,51.8,50.0,94,29.87,2.0,SE,8.1,-,N/A,,Mostly Cloudy,140,2012-10-04 15:09:00
10:17 AM,51.8,50.0,94,29.87,5.0,SE,6.9,-,N/A,,Mostly Cloudy,140,2012-10-04 15:17:00
10:25 AM,51.8,50.0,94,29.86,7.0,SE,6.9,-,N/A,,Scattered Clouds,140,2012-10-04 15:25:00
10:54 AM,55.9,51.1,84,29.85,10.0,SE,10.4,-,N/A,,Clear,130,2012-10-04 15:54:00
11:54 AM,64.9,51.1,61,29.81,10.0,SE,11.5,-,N/A,,Clear,140,2012-10-04 16:54:00
12:54 PM,68.0,51.1,55,29.81,10.0,South,17.3,24.2,N/A,,Mostly Cloudy,170,2012-10-04 17:54:00
1:54 PM,70.0,46.9,44,29.78,10.0,South,23.0,27.6,N/A,,Clear,190,2012-10-04 18:54:00
2:54 PM,71.1,42.1,35,29.77,10.0,WSW,13.8,25.3,N/A,,Mostly Cloudy,240,2012-10-04 19:54:00
3:54 PM,68.0,37.0,32,29.79,10.0,WSW,15.0,23.0,N/A,,Partly Cloudy,250,2012-10-04 20:54:00
4:54 PM,64.0,37.0,37,29.82,10.0,WSW,10.4,27.6,N/A,,Clear,240,2012-10-04 21:54:00
5:54 PM,59.0,34.0,39,29.83,10.0,SW,15.0,25.3,N/A,,Clear,230,2012-10-04 22:54:00
6:54 PM,55.0,34.0,45,29.86,10.0,SW,9.2,20.7,N/A,,Clear,230,2012-10-04 23:54:00
7:54 PM,51.1,32.0,48,29.91,10.0,West,11.5,20.7,N/A,,Clear,270,2012-10-05 00:54:00
8:54 PM,48.9,30.9,50,29.91,10.0,West,10.4,20.7,N/A,,Clear,260,2012-10-05 01:54:00
9:54 PM,46.9,30.0,52,29.92,10.0,West,13.8,24.2,N/A,,Clear,260,2012-10-05 02:54:00
10:54 PM,45.0,30.0,56,29.92,10.0,WSW,11.5,18.4,N/A,,Clear,240,2012-10-05 03:54:00
11:54 PM,44.1,28.9,55,29.91,10.0,WSW,9.2,-,N/A,,Clear,250,2012-10-05 04:54:00